Dansville, NY

7:33 PM EST on January 20, 2017 (GMT -0500)
Dansville Municipal

Weather History for KDSV - August, 2013

Change the Weather History Date:

Wednesday, August 14, 2013

  Actual Average Record
Temperature  
Mean Temperature 60 °F -  
Max Temperature 70 °F 81 °F 95 °F (2002)
Min Temperature 52 °F 55 °F 42 °F (1964)
Degree Days  
Heating Degree Days 4    
Growing Degree Days 10 (Base 50)    
Moisture  
Dew Point 49 °F    
Average Humidity 69    
Maximum Humidity 89    
Minimum Humidity 42    
Precipitation  
Precipitation 0.00 in - - ()
Sea Level Pressure  
Sea Level Pressure 30.00 in    
Wind  
Wind Speed 6 mph (NW)    
Max Wind Speed 17 mph    
Max Gust Speed 24 mph    
Visibility 10 miles    
Events      
Averages and records for this station are not official NWS values.
T = Trace of Precipitation, MM = Missing Value Source: NWS Daily Summary

Daily Weather History Graph

Daily Weather History Graph

Search for Another Location

Airport or City:

Trip Planner

Search our weather history database for the weather conditions in past years. The results will help you decide how hot, cold, wet, or windy it might be!

Date:

Astronomy

Aug. 14, 2013 Rise Set
Actual Time 6:16 AM EDT 8:13 PM EDT
Civil Twilight 5:46 AM EDT 8:43 PM EDT
Nautical Twilight 5:08 AM EDT 9:20 PM EDT
Astronomical Twilight 4:28 AM EDT 10:01 PM EDT
Moon 2:24 PM EDT (8/14) No Moon Set
Length of Visible Light 14h 57m
Length of Day
13h 56m
First Quarter, 52% of the Moon is Illuminated
Aug 14
First Quarter
Aug 20
Full
Aug 28
Last Quarter
Sep 5
New
Sep 12
First Quarter

Hourly Weather History & Observations

Time (EDT) Temp. Dew Point Humidity Pressure Visibility Wind Dir Wind Speed Gust Speed Precip Events Conditions
12:54 AM 59.0 °F 45.0 °F 60% 29.92 in 10.0 mi West 5.8 mph - N/A   Overcast
1:54 AM 57.0 °F 45.0 °F 64% 29.92 in 10.0 mi West 5.8 mph - N/A   Scattered Clouds
2:54 AM 55.9 °F 46.0 °F 69% 29.92 in 10.0 mi Calm Calm - N/A   Partly Cloudy
3:54 AM 52.0 °F 48.0 °F 86% 29.91 in 10.0 mi Calm Calm - N/A   Clear
4:54 AM 52.0 °F 48.9 °F 89% 29.92 in 10.0 mi South 3.5 mph - N/A   Overcast
5:14 AM 53.6 °F 48.2 °F 82% 29.90 in 10.0 mi Calm Calm - N/A   Overcast
5:49 AM 55.4 °F 48.2 °F 77% 29.90 in 10.0 mi Variable 3.5 mph - N/A   Overcast
5:54 AM 55.9 °F 48.9 °F 77% 29.92 in 10.0 mi North 6.9 mph - N/A   Overcast
6:36 AM 55.4 °F 50.0 °F 82% 29.91 in 10.0 mi Calm Calm - N/A   Overcast
6:54 AM 55.0 °F 50.0 °F 83% 29.94 in 10.0 mi Calm Calm - N/A   Overcast
7:54 AM 57.0 °F 50.0 °F 77% 29.96 in 10.0 mi NW 5.8 mph - N/A   Overcast
8:54 AM 59.0 °F 51.1 °F 75% 29.98 in 10.0 mi WNW 9.2 mph 18.4 mph N/A   Overcast
9:06 AM 59.0 °F 51.8 °F 77% 29.96 in 10.0 mi WNW 10.4 mph 19.6 mph N/A   Overcast
9:16 AM 59.0 °F 51.8 °F 77% 29.96 in 10.0 mi WNW 9.2 mph 20.7 mph N/A   Overcast
9:24 AM 60.8 °F 51.8 °F 72% 29.96 in 10.0 mi WNW 11.5 mph 18.4 mph N/A   Overcast
9:38 AM 60.8 °F 51.8 °F 72% 29.96 in 10.0 mi NW 10.4 mph 20.7 mph N/A   Overcast
9:54 AM 60.1 °F 51.1 °F 72% 29.99 in 10.0 mi WNW 10.4 mph - N/A   Overcast
10:54 AM 61.0 °F 50.0 °F 67% 30.01 in 10.0 mi WNW 10.4 mph 21.9 mph N/A   Overcast
11:05 AM 60.8 °F 50.0 °F 68% 29.99 in 10.0 mi NW 12.7 mph - N/A   Overcast
11:54 AM 62.1 °F 51.1 °F 67% 30.04 in 10.0 mi NW 12.7 mph 19.6 mph N/A   Overcast
12:54 PM 66.0 °F 51.1 °F 59% 30.04 in 10.0 mi NW 13.8 mph 20.7 mph N/A   Mostly Cloudy
1:54 PM 66.0 °F 50.0 °F 56% 30.04 in 10.0 mi NNW 12.7 mph - N/A   Overcast
2:54 PM 69.1 °F 50.0 °F 51% 30.04 in 10.0 mi NW 17.3 mph 24.2 mph N/A   Mostly Cloudy
3:54 PM 68.0 °F 46.9 °F 47% 30.05 in 10.0 mi NNW 15.0 mph 21.9 mph N/A   Scattered Clouds
4:54 PM 69.1 °F 45.0 °F 42% 30.06 in 10.0 mi NW 11.5 mph 21.9 mph N/A   Scattered Clouds
5:54 PM 69.1 °F 46.9 °F 45% 30.07 in 10.0 mi NNW 15.0 mph 20.7 mph N/A   Mostly Cloudy
6:54 PM 66.9 °F 46.9 °F 49% 30.09 in 10.0 mi NW 6.9 mph - N/A   Partly Cloudy
7:54 PM 64.0 °F 46.9 °F 54% 30.09 in 10.0 mi Calm Calm - N/A   Scattered Clouds
8:54 PM 57.9 °F 48.9 °F 72% 30.11 in 10.0 mi SSE 3.5 mph - N/A   Clear
9:54 PM 55.0 °F 48.9 °F 80% 30.13 in 10.0 mi Calm Calm - N/A   Clear
10:54 PM 53.1 °F 48.9 °F 86% 30.14 in 10.0 mi SSE 5.8 mph - N/A   Clear
11:54 PM 53.1 °F 48.9 °F 86% 30.14 in 10.0 mi SSE 3.5 mph - N/A   Clear